Time,TemperatureF,DewpointF,PressureIn,WindDirection,WindDirectionDegrees,WindSpeedMPH,WindSpeedGustMPH,Humidity,HourlyPrecipIn,Conditions,Clouds,dailyrainin,SoftwareType,DateUTC
2013-03-03 00:03:00,42.5,32.3,30.13,West,262,0.9,3.8,67,0.00,,,0.00,WUHU216HW,2013-03-03 08:03:00,
2013-03-03 00:08:00,42.3,32.1,30.13,West,270,1.1,2.5,67,0.00,,,0.00,WUHU216HW,2013-03-03 08:08:00,
2013-03-03 00:13:00,42.1,32.3,30.13,WSW,256,1.1,1.8,68,0.00,,,0.00,WUHU216HW,2013-03-03 08:13:00,
2013-03-03 00:18:00,41.8,31.6,30.13,WSW,249,1.5,2.2,67,0.00,,,0.00,WUHU216HW,2013-03-03 08:18:00,
2013-03-03 00:23:00,41.8,31.6,30.13,WSW,249,0.8,3.6,67,0.00,,,0.00,WUHU216HW,2013-03-03 08:23:00,
2013-03-03 00:29:00,41.4,31.2,30.13,WSW,248,1.1,3.6,67,0.00,,,0.00,WUHU216HW,2013-03-03 08:29:00,
2013-03-03 00:34:00,41.4,31.2,30.13,West,259,2.1,2.7,67,0.00,,,0.00,WUHU216HW,2013-03-03 08:34:00,
2013-03-03 00:39:00,41.2,31.1,30.13,WSW,246,1.4,2.7,67,0.00,,,0.00,WUHU216HW,2013-03-03 08:39:00,
2013-03-03 00:44:00,41.0,30.9,30.13,WSW,248,0.4,2.7,67,0.00,,,0.00,WUHU216HW,2013-03-03 08:44:00,
2013-03-03 00:49:00,40.9,30.7,30.13,WSW,248,0.4,1.1,67,0.00,,,0.00,WUHU216HW,2013-03-03 08:49:00,
2013-03-03 00:54:00,40.7,30.5,30.13,WSW,248,0.7,2.0,67,0.00,,,0.00,WUHU216HW,2013-03-03 08:54:00,
2013-03-03 00:59:00,40.5,30.3,30.14,NNE,23,1.8,2.0,67,0.00,,,0.00,WUHU216HW,2013-03-03 08:59:00,
2013-03-03 01:04:00,40.0,29.8,30.14,East,90,0.7,1.8,67,0.00,,,0.00,WUHU216HW,2013-03-03 09:04:00,
2013-03-03 01:09:00,39.8,29.6,30.15,East,90,0.2,1.8,67,0.00,,,0.00,WUHU216HW,2013-03-03 09:09:00,
2013-03-03 01:14:00,39.6,29.4,30.15,East,90,0.0,0.4,67,0.00,,,0.00,WUHU216HW,2013-03-03 09:14:00,
2013-03-03 01:19:00,39.6,28.4,30.15,WSW,248,1.3,1.3,64,0.00,,,0.00,WUHU216HW,2013-03-03 09:19:00,
2013-03-03 01:24:00,39.2,28.0,30.15,WSW,248,0.8,1.3,64,0.00,,,0.00,WUHU216HW,2013-03-03 09:24:00,
2013-03-03 01:29:00,39.2,28.0,30.15,WSW,248,1.1,1.3,64,0.00,,,0.00,WUHU216HW,2013-03-03 09:29:00,
2013-03-03 01:34:00,39.1,22.9,30.16,WSW,248,2.0,2.0,52,0.00,,,0.00,WUHU216HW,2013-03-03 09:34:00,
2013-03-03 01:39:00,39.1,23.3,30.16,West,270,1.8,2.5,53,0.00,,,0.00,WUHU216HW,2013-03-03 09:39:00,
2013-03-03 01:44:00,39.1,21.4,30.16,WSW,248,2.2,2.5,49,0.00,,,0.00,WUHU216HW,2013-03-03 09:44:00,
2013-03-03 01:49:00,38.9,23.6,30.16,West,260,1.2,2.5,54,0.00,,,0.00,WUHU216HW,2013-03-03 09:49:00,
2013-03-03 01:55:00,39.1,24.1,30.16,WSW,248,1.2,2.2,55,0.00,,,0.00,WUHU216HW,2013-03-03 09:55:00,
2013-03-03 02:00:00,38.9,24.8,30.16,WNW,293,0.3,1.8,57,0.00,,,0.00,WUHU216HW,2013-03-03 10:00:00,
2013-03-03 02:05:00,38.9,25.3,30.16,WNW,293,0.0,1.1,58,0.00,,,0.00,WUHU216HW,2013-03-03 10:05:00,
2013-03-03 02:10:00,38.7,24.7,30.16,WSW,248,1.8,2.2,57,0.00,,,0.00,WUHU216HW,2013-03-03 10:10:00,
2013-03-03 02:15:00,38.5,24.1,30.16,WSW,253,1.5,2.2,56,0.00,,,0.00,WUHU216HW,2013-03-03 10:15:00,
2013-03-03 02:20:00,38.3,24.8,30.16,WSW,248,0.4,2.2,58,0.00,,,0.00,WUHU216HW,2013-03-03 10:20:00,
2013-03-03 02:25:00,38.2,25.0,30.16,SW,225,0.3,1.6,59,0.00,,,0.00,WUHU216HW,2013-03-03 10:25:00,
2013-03-03 02:30:00,38.2,25.0,30.16,North,6,0.8,1.3,59,0.00,,,0.00,WUHU216HW,2013-03-03 10:30:00,
2013-03-03 02:35:00,38.0,24.9,30.16,North,0,1.6,1.6,59,0.00,,,0.00,WUHU216HW,2013-03-03 10:35:00,
2013-03-03 02:40:00,37.8,25.2,30.16,NNE,23,1.8,1.8,60,0.00,,,0.00,WUHU216HW,2013-03-03 10:40:00,
2013-03-03 02:45:00,37.6,25.0,30.16,NNE,23,1.3,1.8,60,0.00,,,0.00,WUHU216HW,2013-03-03 10:45:00,
2013-03-03 02:50:00,37.4,24.8,30.16,NNE,23,1.1,1.8,60,0.00,,,0.00,WUHU216HW,2013-03-03 10:50:00,
2013-03-03 02:55:00,37.4,24.4,30.16,NNE,23,0.8,1.6,59,0.00,,,0.00,WUHU216HW,2013-03-03 10:55:00,
2013-03-03 03:00:00,37.4,23.9,30.15,NE,45,0.3,1.3,58,0.00,,,0.00,WUHU216HW,2013-03-03 11:00:00,
2013-03-03 03:05:00,37.4,23.6,30.15,WSW,248,1.1,1.8,57,0.00,,,0.00,WUHU216HW,2013-03-03 11:05:00,
2013-03-03 03:10:00,37.3,23.4,30.15,SW,224,1.2,1.8,57,0.00,,,0.00,WUHU216HW,2013-03-03 11:10:00,
2013-03-03 03:16:00,37.3,23.9,30.15,SW,225,0.9,1.8,58,0.00,,,0.00,WUHU216HW,2013-03-03 11:16:00,
2013-03-03 03:21:00,37.1,24.1,30.15,SSE,158,1.0,1.3,59,0.00,,,0.00,WUHU216HW,2013-03-03 11:21:00,
2013-03-03 03:26:00,37.1,24.1,30.15,SSW,203,2.5,2.7,59,0.00,,,0.00,WUHU216HW,2013-03-03 11:26:00,
2013-03-03 03:31:00,36.7,24.2,30.15,SSE,158,1.9,2.7,60,0.00,,,0.00,WUHU216HW,2013-03-03 11:31:00,
2013-03-03 03:36:00,36.4,24.2,30.15,WSW,248,0.5,2.0,61,0.00,,,0.00,WUHU216HW,2013-03-03 11:36:00,
2013-03-03 03:41:00,36.4,23.9,30.15,SSW,203,0.5,1.6,60,0.00,,,0.00,WUHU216HW,2013-03-03 11:41:00,
2013-03-03 03:46:00,36.2,23.7,30.15,West,269,1.6,1.8,60,0.00,,,0.00,WUHU216HW,2013-03-03 11:46:00,
2013-03-03 03:51:00,36.0,23.6,30.14,SW,225,0.6,1.8,60,0.00,,,0.00,WUHU216HW,2013-03-03 11:51:00,
2013-03-03 03:56:00,35.6,23.2,30.14,SW,225,0.2,1.6,60,0.00,,,0.00,WUHU216HW,2013-03-03 11:56:00,
2013-03-03 04:01:00,35.6,23.2,30.14,SW,225,0.4,0.9,60,0.00,,,0.00,WUHU216HW,2013-03-03 12:01:00,
2013-03-03 04:06:00,35.6,23.2,30.14,SSE,158,0.9,1.1,60,0.00,,,0.00,WUHU216HW,2013-03-03 12:06:00,
2013-03-03 04:11:00,35.5,23.4,30.15,ESE,113,0.0,1.1,61,0.00,,,0.00,WUHU216HW,2013-03-03 12:11:00,
2013-03-03 04:16:00,35.3,22.9,30.15,ESE,113,0.0,1.1,60,0.00,,,0.00,WUHU216HW,2013-03-03 12:16:00,
2013-03-03 04:21:00,35.3,22.9,30.15,ENE,68,0.7,1.6,60,0.00,,,0.00,WUHU216HW,2013-03-03 12:21:00,
2013-03-03 04:27:00,35.1,22.7,30.15,ENE,68,0.0,1.6,60,0.00,,,0.00,WUHU216HW,2013-03-03 12:27:00,
2013-03-03 04:32:00,35.1,22.7,30.15,ENE,68,1.0,1.1,60,0.00,,,0.00,WUHU216HW,2013-03-03 12:32:00,
2013-03-03 04:37:00,35.1,22.7,30.14,SSE,158,0.7,1.8,60,0.00,,,0.00,WUHU216HW,2013-03-03 12:37:00,
2013-03-03 04:42:00,34.9,22.5,30.14,SSE,158,0.0,1.8,60,0.00,,,0.00,WUHU216HW,2013-03-03 12:42:00,
2013-03-03 04:47:00,34.7,21.9,30.14,SSE,158,0.3,0.9,59,0.00,,,0.00,WUHU216HW,2013-03-03 12:47:00,
2013-03-03 04:52:00,34.4,21.5,30.14,SSE,158,0.0,0.9,59,0.00,,,0.00,WUHU216HW,2013-03-03 12:52:00,
2013-03-03 04:57:00,34.2,21.3,30.15,SSW,203,0.9,0.9,59,0.00,,,0.00,WUHU216HW,2013-03-03 12:57:00,
2013-03-03 05:02:00,34.0,21.2,30.15,SSW,203,0.4,0.9,59,0.00,,,0.00,WUHU216HW,2013-03-03 13:02:00,
2013-03-03 05:07:00,33.8,21.4,30.15,SSW,203,0.7,1.1,60,0.00,,,0.00,WUHU216HW,2013-03-03 13:07:00,
2013-03-03 05:12:00,33.7,21.2,30.15,SSW,203,0.8,1.3,60,0.00,,,0.00,WUHU216HW,2013-03-03 13:12:00,
2013-03-03 05:17:00,33.5,20.7,30.15,SW,225,0.7,1.3,59,0.00,,,0.00,WUHU216HW,2013-03-03 13:17:00,
2013-03-03 05:22:00,33.1,19.9,30.15,SW,225,0.4,0.9,58,0.00,,,0.00,WUHU216HW,2013-03-03 13:22:00,
2013-03-03 05:27:00,33.1,19.9,30.14,SSW,203,1.1,1.1,58,0.00,,,0.00,WUHU216HW,2013-03-03 13:27:00,
2013-03-03 05:33:00,33.1,19.9,30.15,South,180,0.4,1.6,58,0.00,,,0.00,WUHU216HW,2013-03-03 13:33:00,
2013-03-03 05:38:00,33.1,19.9,30.15,SE,135,0.7,1.6,58,0.00,,,0.00,WUHU216HW,2013-03-03 13:38:00,
2013-03-03 05:43:00,32.9,19.7,30.15,SE,135,0.0,0.9,58,0.00,,,0.00,WUHU216HW,2013-03-03 13:43:00,
2013-03-03 05:48:00,32.9,19.4,30.16,SE,135,0.0,0.7,57,0.00,,,0.00,WUHU216HW,2013-03-03 13:48:00,
2013-03-03 05:53:00,32.8,19.2,30.16,South,179,0.8,1.1,57,0.00,,,0.00,WUHU216HW,2013-03-03 13:53:00,
2013-03-03 05:58:00,32.8,19.2,30.16,South,180,0.2,1.1,57,0.00,,,0.00,WUHU216HW,2013-03-03 13:58:00,
2013-03-03 06:03:00,32.6,18.5,30.16,South,180,0.8,1.1,56,0.00,,,0.00,WUHU216HW,2013-03-03 14:03:00,
2013-03-03 06:08:00,32.4,18.0,30.17,WSW,237,1.3,2.0,55,0.00,,,0.00,WUHU216HW,2013-03-03 14:08:00,
2013-03-03 06:13:00,32.2,18.3,30.17,SW,225,0.3,2.0,56,0.00,,,0.00,WUHU216HW,2013-03-03 14:13:00,
2013-03-03 06:18:00,32.2,17.8,30.17,West,262,0.8,1.3,55,0.00,,,0.00,WUHU216HW,2013-03-03 14:18:00,
2013-03-03 06:23:00,32.2,17.4,30.17,WSW,248,0.3,1.3,54,0.00,,,0.00,WUHU216HW,2013-03-03 14:23:00,
2013-03-03 06:28:00,32.2,17.4,30.18,WSW,248,0.0,0.9,54,0.00,,,0.00,WUHU216HW,2013-03-03 14:28:00,
2013-03-03 06:33:00,32.2,17.4,30.18,WSW,248,0.0,0.0,54,0.00,,,0.00,WUHU216HW,2013-03-03 14:33:00,
2013-03-03 06:39:00,32.2,17.4,30.18,WSW,248,0.7,0.7,54,0.00,,,0.00,WUHU216HW,2013-03-03 14:39:00,
2013-03-03 06:44:00,32.0,17.6,30.18,WSW,248,0.4,0.7,55,0.00,,,0.00,WUHU216HW,2013-03-03 14:44:00,
2013-03-03 06:49:00,32.0,14.5,30.18,WSW,248,1.1,1.8,48,0.00,,,0.00,WUHU216HW,2013-03-03 14:49:00,
2013-03-03 06:54:00,31.9,15.3,30.18,WSW,248,0.3,1.8,50,0.00,,,0.00,WUHU216HW,2013-03-03 14:54:00,
2013-03-03 06:59:00,31.9,15.8,30.19,WSW,248,1.1,1.1,51,0.00,,,0.00,WUHU216HW,2013-03-03 14:59:00,
2013-03-03 07:04:00,31.5,15.0,30.18,SW,225,1.3,1.8,50,0.00,,,0.00,WUHU216HW,2013-03-03 15:04:00,
2013-03-03 07:09:00,31.5,14.5,30.19,SW,225,1.2,1.8,49,0.00,,,0.00,WUHU216HW,2013-03-03 15:09:00,
2013-03-03 07:14:00,31.7,12.2,30.19,WSW,248,1.1,1.8,44,0.00,,,0.00,WUHU216HW,2013-03-03 15:14:00,
2013-03-03 07:19:00,31.9,8.4,30.18,WSW,248,0.9,1.1,37,0.00,,,0.00,WUHU216HW,2013-03-03 15:19:00,
2013-03-03 07:24:00,31.9,9.0,30.18,SW,225,1.1,1.1,38,0.00,,,0.00,WUHU216HW,2013-03-03 15:24:00,
2013-03-03 07:29:00,32.0,9.8,30.18,SW,225,1.0,1.6,39,0.00,,,0.00,WUHU216HW,2013-03-03 15:29:00,
2013-03-03 07:34:00,32.0,7.3,30.19,SW,225,0.6,1.6,35,0.00,,,0.00,WUHU216HW,2013-03-03 15:34:00,
2013-03-03 07:39:00,32.0,8.6,30.19,SW,225,1.1,1.1,37,0.00,,,0.00,WUHU216HW,2013-03-03 15:39:00,
2013-03-03 07:44:00,32.4,9.6,30.19,SW,225,1.1,1.6,38,0.00,,,0.00,WUHU216HW,2013-03-03 15:44:00,
2013-03-03 07:49:00,32.6,7.7,30.19,SW,225,1.4,1.8,35,0.00,,,0.00,WUHU216HW,2013-03-03 15:49:00,
2013-03-03 07:55:00,32.8,7.9,30.19,WSW,248,1.6,1.8,35,0.00,,,0.00,WUHU216HW,2013-03-03 15:55:00,
2013-03-03 08:00:00,33.3,7.2,30.19,SW,219,2.0,2.5,33,0.00,,,0.00,WUHU216HW,2013-03-03 16:00:00,
2013-03-03 08:05:00,33.7,6.8,30.19,SW,225,1.8,2.5,32,0.00,,,0.00,WUHU216HW,2013-03-03 16:05:00,
2013-03-03 08:10:00,34.0,6.6,30.19,SW,225,2.1,3.1,31,0.00,,,0.00,WUHU216HW,2013-03-03 16:10:00,
2013-03-03 08:15:00,34.4,6.2,30.19,SW,225,1.5,3.1,30,0.00,,,0.00,WUHU216HW,2013-03-03 16:15:00,
2013-03-03 08:20:00,34.9,6.7,30.19,SW,225,1.3,2.0,30,0.00,,,0.00,WUHU216HW,2013-03-03 16:20:00,
2013-03-03 08:25:00,35.1,6.8,30.19,SW,225,1.4,2.0,30,0.00,,,0.00,WUHU216HW,2013-03-03 16:25:00,
2013-03-03 08:30:00,35.6,2.0,30.19,WSW,248,1.3,2.0,24,0.00,,,0.00,WUHU216HW,2013-03-03 16:30:00,
2013-03-03 08:35:00,36.2,2.4,30.19,SW,225,1.3,2.0,24,0.00,,,0.00,WUHU216HW,2013-03-03 16:35:00,
2013-03-03 08:40:00,36.4,6.1,30.19,SW,223,1.1,1.8,28,0.00,,,0.00,WUHU216HW,2013-03-03 16:40:00,
2013-03-03 08:45:00,36.7,8.2,30.19,SW,225,0.8,1.6,30,0.00,,,0.00,WUHU216HW,2013-03-03 16:45:00,
2013-03-03 08:50:00,37.3,8.6,30.19,SSW,203,0.4,1.1,30,0.00,,,0.00,WUHU216HW,2013-03-03 16:50:00,
2013-03-03 08:55:00,37.8,9.2,30.19,WSW,248,1.1,1.1,30,0.00,,,0.00,WUHU216HW,2013-03-03 16:55:00,
2013-03-03 09:00:00,38.2,10.8,30.19,SSW,203,1.1,1.3,32,0.00,,,0.00,WUHU216HW,2013-03-03 17:00:00,
2013-03-03 09:05:00,38.9,13.3,30.19,ENE,77,1.1,2.5,35,0.00,,,0.00,WUHU216HW,2013-03-03 17:05:00,
2013-03-03 09:10:00,39.6,18.8,30.19,NE,45,2.0,4.3,43,0.01,,,0.01,WUHU216HW,2013-03-03 17:10:00,
2013-03-03 09:15:00,40.3,20.5,30.19,NE,45,0.4,4.3,45,0.01,,,0.01,WUHU216HW,2013-03-03 17:15:00,
2013-03-03 09:20:00,40.9,23.6,30.19,North,0,1.3,3.8,50,0.01,,,0.01,WUHU216HW,2013-03-03 17:20:00,
2013-03-03 09:25:00,41.4,27.3,30.19,NNE,25,1.1,3.4,57,0.01,,,0.01,WUHU216HW,2013-03-03 17:25:00,
2013-03-03 09:30:00,42.1,31.1,30.19,NNE,30,1.2,3.4,65,0.01,,,0.01,WUHU216HW,2013-03-03 17:30:00,
2013-03-03 09:36:00,42.7,34.0,30.19,ENE,68,4.3,4.9,71,0.01,,,0.01,WUHU216HW,2013-03-03 17:36:00,
2013-03-03 09:41:00,43.2,34.5,30.19,East,99,4.8,5.6,71,0.01,,,0.01,WUHU216HW,2013-03-03 17:41:00,
2013-03-03 09:46:00,43.6,35.5,30.19,NE,45,3.4,7.8,73,0.01,,,0.01,WUHU216HW,2013-03-03 17:46:00,
2013-03-03 09:51:00,43.9,36.2,30.19,NE,45,3.4,7.8,74,0.01,,,0.01,WUHU216HW,2013-03-03 17:51:00,
2013-03-03 09:56:00,44.5,36.6,30.19,North,2,3.0,4.7,74,0.01,,,0.01,WUHU216HW,2013-03-03 17:56:00,
2013-03-03 10:01:00,44.6,36.8,30.19,NE,45,5.8,5.8,74,0.01,,,0.01,WUHU216HW,2013-03-03 18:01:00,
2013-03-03 10:06:00,45.0,37.2,30.19,NE,36,2.6,7.4,74,0.01,,,0.01,WUHU216HW,2013-03-03 18:06:00,
2013-03-03 10:11:00,45.4,37.5,30.19,East,82,4.5,8.9,74,0.00,,,0.01,WUHU216HW,2013-03-03 18:11:00,
2013-03-03 10:16:00,45.7,38.3,30.19,ENE,65,3.2,8.9,75,0.00,,,0.01,WUHU216HW,2013-03-03 18:16:00,
2013-03-03 10:21:00,46.1,37.9,30.19,ENE,63,6.7,9.6,73,0.00,,,0.01,WUHU216HW,2013-03-03 18:21:00,
2013-03-03 10:27:00,46.1,37.6,30.18,ENE,68,6.7,9.6,72,0.00,,,0.01,WUHU216HW,2013-03-03 18:27:00,
2013-03-03 10:32:00,46.1,37.3,30.18,East,94,6.9,8.9,71,0.00,,,0.01,WUHU216HW,2013-03-03 18:32:00,
2013-03-03 10:37:00,46.4,38.0,30.18,ENE,77,5.0,8.9,72,0.00,,,0.01,WUHU216HW,2013-03-03 18:37:00,
2013-03-03 10:42:00,46.8,37.9,30.18,NE,44,5.1,7.4,71,0.00,,,0.01,WUHU216HW,2013-03-03 18:42:00,
2013-03-03 10:47:00,47.2,38.6,30.18,NNE,23,3.7,7.4,72,0.00,,,0.01,WUHU216HW,2013-03-03 18:47:00,
2013-03-03 10:52:00,47.7,38.7,30.18,ENE,66,3.3,7.2,71,0.00,,,0.01,WUHU216HW,2013-03-03 18:52:00,
2013-03-03 10:57:00,48.1,37.6,30.18,NE,47,7.4,10.5,67,0.00,,,0.01,WUHU216HW,2013-03-03 18:57:00,
2013-03-03 11:02:00,48.2,37.7,30.18,East,92,5.3,10.5,67,0.00,,,0.01,WUHU216HW,2013-03-03 19:02:00,
2013-03-03 11:07:00,48.2,38.2,30.18,NE,51,6.2,10.5,68,0.00,,,0.01,WUHU216HW,2013-03-03 19:07:00,
2013-03-03 11:12:00,48.6,38.5,30.18,East,88,2.8,8.3,68,0.00,,,0.01,WUHU216HW,2013-03-03 19:12:00,
2013-03-03 11:17:00,48.8,38.3,30.18,East,90,6.9,7.8,67,0.00,,,0.01,WUHU216HW,2013-03-03 19:17:00,
2013-03-03 11:22:00,49.0,37.7,30.18,East,87,5.9,8.7,65,0.00,,,0.01,WUHU216HW,2013-03-03 19:22:00,
2013-03-03 11:27:00,49.1,37.8,30.17,NNE,28,3.3,8.7,65,0.00,,,0.01,WUHU216HW,2013-03-03 19:27:00,
2013-03-03 11:32:00,49.1,37.4,30.17,East,92,3.1,6.3,64,0.00,,,0.01,WUHU216HW,2013-03-03 19:32:00,
2013-03-03 11:38:00,49.3,38.0,30.17,NE,49,2.3,6.3,65,0.00,,,0.01,WUHU216HW,2013-03-03 19:38:00,
2013-03-03 11:43:00,49.7,38.0,30.17,East,88,6.5,9.6,64,0.00,,,0.01,WUHU216HW,2013-03-03 19:43:00,
2013-03-03 11:48:00,50.0,37.9,30.17,ESE,118,4.0,9.6,63,0.00,,,0.01,WUHU216HW,2013-03-03 19:48:00,
2013-03-03 11:53:00,50.4,38.3,30.17,NE,44,4.1,8.7,63,0.00,,,0.01,WUHU216HW,2013-03-03 19:53:00,
2013-03-03 11:58:00,50.0,38.4,30.17,NE,45,6.9,8.7,64,0.00,,,0.01,WUHU216HW,2013-03-03 19:58:00,
2013-03-03 12:03:00,50.2,37.7,30.16,SE,135,8.5,8.5,62,0.00,,,0.01,WUHU216HW,2013-03-03 20:03:00,
2013-03-03 12:08:00,50.4,37.8,30.17,East,90,5.4,9.6,62,0.00,,,0.01,WUHU216HW,2013-03-03 20:08:00,
2013-03-03 12:13:00,50.0,37.5,30.16,ESE,113,7.8,9.6,62,0.00,,,0.01,WUHU216HW,2013-03-03 20:13:00,
2013-03-03 12:18:00,49.7,37.5,30.16,ESE,113,5.4,8.1,63,0.00,,,0.01,WUHU216HW,2013-03-03 20:18:00,
2013-03-03 12:23:00,49.9,37.7,30.16,ESE,115,5.2,8.1,63,0.00,,,0.01,WUHU216HW,2013-03-03 20:23:00,
2013-03-03 12:28:00,50.0,38.4,30.16,NE,37,2.7,6.5,64,0.00,,,0.01,WUHU216HW,2013-03-03 20:28:00,
2013-03-03 12:33:00,50.4,38.6,30.16,NNE,23,1.1,4.5,64,0.00,,,0.01,WUHU216HW,2013-03-03 20:33:00,
2013-03-03 12:38:00,50.2,38.1,30.16,East,90,4.5,6.3,63,0.00,,,0.01,WUHU216HW,2013-03-03 20:38:00,
2013-03-03 12:43:00,50.2,37.3,30.15,ESE,113,5.8,8.3,61,0.00,,,0.01,WUHU216HW,2013-03-03 20:43:00,
2013-03-03 12:48:00,50.6,37.2,30.15,ENE,68,7.4,8.5,60,0.00,,,0.01,WUHU216HW,2013-03-03 20:48:00,
2013-03-03 12:53:00,50.9,36.6,30.15,NNE,22,3.8,8.5,58,0.00,,,0.01,WUHU216HW,2013-03-03 20:53:00,
2013-03-03 12:58:00,50.8,36.9,30.15,ENE,72,4.1,8.1,59,0.00,,,0.01,WUHU216HW,2013-03-03 20:58:00,
2013-03-03 13:04:00,50.9,36.6,30.15,East,83,5.0,7.4,58,0.00,,,0.01,WUHU216HW,2013-03-03 21:04:00,
2013-03-03 13:09:00,51.3,38.3,30.15,North,0,3.4,7.4,61,0.00,,,0.01,WUHU216HW,2013-03-03 21:09:00,
2013-03-03 13:14:00,51.1,36.8,30.15,NNE,23,3.1,4.7,58,0.00,,,0.01,WUHU216HW,2013-03-03 21:14:00,
2013-03-03 13:19:00,51.1,37.3,30.14,NE,45,4.7,7.2,59,0.00,,,0.01,WUHU216HW,2013-03-03 21:19:00,
2013-03-03 13:24:00,51.1,37.7,30.14,NE,45,4.9,7.2,60,0.00,,,0.01,WUHU216HW,2013-03-03 21:24:00,
2013-03-03 13:29:00,50.9,37.5,30.14,East,83,2.0,8.7,60,0.00,,,0.01,WUHU216HW,2013-03-03 21:29:00,
2013-03-03 13:34:00,51.1,37.3,30.14,ENE,63,2.1,8.7,59,0.00,,,0.01,WUHU216HW,2013-03-03 21:34:00,
2013-03-03 13:39:00,51.5,38.0,30.14,North,3,1.3,4.7,60,0.00,,,0.01,WUHU216HW,2013-03-03 21:39:00,
2013-03-03 13:44:00,50.9,37.1,30.14,North,7,2.6,6.7,59,0.00,,,0.01,WUHU216HW,2013-03-03 21:44:00,
2013-03-03 13:49:00,50.9,37.1,30.14,NNW,344,2.5,6.7,59,0.00,,,0.01,WUHU216HW,2013-03-03 21:49:00,
2013-03-03 13:54:00,51.3,37.9,30.14,NE,55,2.3,4.3,60,0.00,,,0.01,WUHU216HW,2013-03-03 21:54:00,
2013-03-03 13:59:00,51.7,37.7,30.14,NNE,26,2.7,3.6,59,0.00,,,0.01,WUHU216HW,2013-03-03 21:59:00,
2013-03-03 14:04:00,51.3,36.6,30.14,ENE,64,5.9,9.2,57,0.00,,,0.01,WUHU216HW,2013-03-03 22:04:00,
2013-03-03 14:09:00,51.3,36.6,30.14,ENE,59,2.7,9.2,57,0.00,,,0.01,WUHU216HW,2013-03-03 22:09:00,
2013-03-03 14:14:00,51.5,36.6,30.14,East,90,4.0,4.9,57,0.00,,,0.01,WUHU216HW,2013-03-03 22:14:00,
2013-03-03 14:19:00,51.8,36.5,30.14,NE,50,3.4,7.6,56,0.00,,,0.01,WUHU216HW,2013-03-03 22:19:00,
2013-03-03 14:24:00,52.0,37.2,30.13,NE,45,2.7,7.6,57,0.00,,,0.01,WUHU216HW,2013-03-03 22:24:00,
2013-03-03 14:29:00,51.5,36.2,30.13,NE,36,4.3,8.7,56,0.00,,,0.01,WUHU216HW,2013-03-03 22:29:00,
2013-03-03 14:35:00,51.5,37.1,30.13,East,90,1.6,8.7,58,0.00,,,0.01,WUHU216HW,2013-03-03 22:35:00,
2013-03-03 14:40:00,51.8,35.2,30.13,ENE,74,8.9,12.1,53,0.00,,,0.01,WUHU216HW,2013-03-03 22:40:00,
2013-03-03 14:45:00,52.0,35.4,30.13,NE,55,5.8,12.1,53,0.00,,,0.01,WUHU216HW,2013-03-03 22:45:00,
2013-03-03 14:50:00,52.2,36.5,30.14,ENE,62,4.2,8.9,55,0.00,,,0.01,WUHU216HW,2013-03-03 22:50:00,
2013-03-03 14:55:00,52.0,35.8,30.14,ENE,68,4.5,8.3,54,0.00,,,0.01,WUHU216HW,2013-03-03 22:55:00,
2013-03-03 15:00:00,51.7,36.4,30.14,ENE,60,2.0,8.3,56,0.00,,,0.01,WUHU216HW,2013-03-03 23:00:00,
2013-03-03 15:05:00,51.5,36.2,30.13,NE,53,3.9,9.4,56,0.00,,,0.01,WUHU216HW,2013-03-03 23:05:00,
2013-03-03 15:10:00,51.3,35.7,30.13,ENE,63,3.3,9.4,55,0.00,,,0.01,WUHU216HW,2013-03-03 23:10:00,
2013-03-03 15:15:00,51.5,35.3,30.13,ENE,66,7.1,8.9,54,0.00,,,0.01,WUHU216HW,2013-03-03 23:15:00,
2013-03-03 15:21:00,51.5,35.7,30.13,ESE,113,4.5,8.9,55,0.00,,,0.01,WUHU216HW,2013-03-03 23:21:00,
2013-03-03 15:26:00,51.7,35.9,30.13,ENE,69,4.4,7.4,55,0.00,,,0.01,WUHU216HW,2013-03-03 23:26:00,
2013-03-03 15:31:00,51.5,35.7,30.13,North,7,1.8,7.4,55,0.00,,,0.01,WUHU216HW,2013-03-03 23:31:00,
2013-03-03 15:36:00,51.1,35.5,30.13,NNE,23,1.8,4.9,55,0.00,,,0.01,WUHU216HW,2013-03-03 23:36:00,
2013-03-03 15:41:00,51.1,35.9,30.13,NNW,338,2.0,3.8,56,0.00,,,0.01,WUHU216HW,2013-03-03 23:41:00,
2013-03-03 15:46:00,50.9,35.3,30.13,NE,45,2.9,8.1,55,0.00,,,0.01,WUHU216HW,2013-03-03 23:46:00,
2013-03-03 15:51:00,51.3,34.3,30.13,ENE,58,5.2,9.6,52,0.00,,,0.01,WUHU216HW,2013-03-03 23:51:00,
2013-03-03 15:56:00,51.3,34.8,30.13,ENE,61,3.5,9.6,53,0.00,,,0.01,WUHU216HW,2013-03-03 23:56:00,
2013-03-03 16:01:00,51.5,34.8,30.13,ENE,62,3.1,6.9,53,0.00,,,0.01,WUHU216HW,2013-03-04 00:01:00,
2013-03-03 16:06:00,51.7,35.0,30.13,NNE,20,3.0,6.7,53,0.00,,,0.01,WUHU216HW,2013-03-04 00:06:00,
2013-03-03 16:11:00,51.1,34.1,30.12,WNW,293,3.4,6.7,52,0.00,,,0.01,WUHU216HW,2013-03-04 00:11:00,
2013-03-03 16:16:00,50.8,34.7,30.12,ENE,66,3.1,7.2,54,0.00,,,0.01,WUHU216HW,2013-03-04 00:16:00,
2013-03-03 16:22:00,50.8,34.7,30.12,NE,45,3.6,7.2,54,0.00,,,0.01,WUHU216HW,2013-03-04 00:22:00,
2013-03-03 16:27:00,50.8,35.1,30.12,NNE,23,5.6,6.3,55,0.00,,,0.01,WUHU216HW,2013-03-04 00:27:00,
2013-03-03 16:32:00,50.6,34.9,30.12,NE,45,2.9,6.3,55,0.00,,,0.01,WUHU216HW,2013-03-04 00:32:00,
2013-03-03 16:37:00,50.0,34.9,30.12,NE,50,3.0,5.6,56,0.00,,,0.01,WUHU216HW,2013-03-04 00:37:00,
2013-03-03 16:42:00,49.7,34.6,30.12,East,90,3.1,4.5,56,0.00,,,0.01,WUHU216HW,2013-03-04 00:42:00,
2013-03-03 16:47:00,49.3,34.8,30.11,NNE,24,1.2,6.9,57,0.00,,,0.01,WUHU216HW,2013-03-04 00:47:00,
2013-03-03 16:52:00,49.1,35.0,30.11,ENE,62,2.8,6.9,58,0.00,,,0.01,WUHU216HW,2013-03-04 00:52:00,
2013-03-03 16:57:00,48.8,35.1,30.11,North,10,1.9,5.4,59,0.00,,,0.01,WUHU216HW,2013-03-04 00:57:00,
2013-03-03 17:02:00,48.6,34.9,30.11,North,0,1.6,4.7,59,0.00,,,0.01,WUHU216HW,2013-03-04 01:02:00,
2013-03-03 17:07:00,48.4,34.8,30.11,NNE,22,2.4,4.7,59,0.00,,,0.01,WUHU216HW,2013-03-04 01:07:00,
2013-03-03 17:12:00,48.6,34.9,30.11,NNE,23,0.9,4.7,59,0.00,,,0.01,WUHU216HW,2013-03-04 01:12:00,
2013-03-03 17:17:00,48.6,34.9,30.11,North,0,1.1,4.5,59,0.00,,,0.01,WUHU216HW,2013-03-04 01:17:00,
2013-03-03 17:23:00,48.8,35.1,30.11,North,0,3.8,6.3,59,0.00,,,0.01,WUHU216HW,2013-03-04 01:23:00,
2013-03-03 17:28:00,48.8,35.6,30.11,ENE,68,2.5,6.3,60,0.00,,,0.01,WUHU216HW,2013-03-04 01:28:00,
2013-03-03 17:33:00,48.6,34.9,30.11,NE,34,2.4,4.7,59,0.00,,,0.01,WUHU216HW,2013-03-04 01:33:00,
2013-03-03 17:38:00,48.6,34.9,30.11,NNE,23,3.6,6.3,59,0.00,,,0.01,WUHU216HW,2013-03-04 01:38:00,
2013-03-03 17:43:00,48.1,34.9,30.10,NE,45,1.3,6.3,60,0.00,,,0.01,WUHU216HW,2013-03-04 01:43:00,
2013-03-03 17:48:00,47.7,34.9,30.11,NE,51,1.0,3.6,61,0.00,,,0.01,WUHU216HW,2013-03-04 01:48:00,
2013-03-03 17:53:00,47.2,34.4,30.11,NNE,23,1.1,4.7,61,0.00,,,0.01,WUHU216HW,2013-03-04 01:53:00,
2013-03-03 17:58:00,46.8,34.0,30.11,NNE,23,0.9,4.7,61,0.00,,,0.01,WUHU216HW,2013-03-04 01:58:00,
2013-03-03 18:03:00,46.4,34.1,30.11,NNE,23,0.8,3.4,62,0.00,,,0.01,WUHU216HW,2013-03-04 02:03:00,
2013-03-03 18:08:00,46.1,33.8,30.11,NNE,23,0.8,2.0,62,0.00,,,0.01,WUHU216HW,2013-03-04 02:08:00,
2013-03-03 18:13:00,45.7,33.9,30.11,NNE,23,3.4,3.4,63,0.00,,,0.01,WUHU216HW,2013-03-04 02:13:00,
2013-03-03 18:18:00,45.4,33.5,30.11,NNE,23,1.0,3.4,63,0.00,,,0.01,WUHU216HW,2013-03-04 02:18:00,
2013-03-03 18:23:00,45.0,33.1,30.11,NNE,23,0.9,3.4,63,0.00,,,0.01,WUHU216HW,2013-03-04 02:23:00,
2013-03-03 18:29:00,44.6,33.2,30.11,NNE,23,0.6,1.1,64,0.00,,,0.01,WUHU216HW,2013-03-04 02:29:00,
2013-03-03 18:34:00,44.3,33.2,30.11,NNE,23,0.4,0.9,65,0.00,,,0.01,WUHU216HW,2013-03-04 02:34:00,
2013-03-03 18:39:00,43.9,33.3,30.11,NNE,23,0.5,1.1,66,0.00,,,0.01,WUHU216HW,2013-03-04 02:39:00,
2013-03-03 18:44:00,43.4,32.8,30.11,NNE,23,0.0,1.1,66,0.00,,,0.01,WUHU216HW,2013-03-04 02:44:00,
2013-03-03 18:49:00,42.8,32.7,30.11,NNE,23,1.1,1.1,67,0.00,,,0.01,WUHU216HW,2013-03-04 02:49:00,
2013-03-03 18:54:00,42.5,32.3,30.12,NNE,23,1.1,1.1,67,0.00,,,0.01,WUHU216HW,2013-03-04 02:54:00,
2013-03-03 18:59:00,42.1,32.3,30.12,NNE,23,0.4,1.1,68,0.00,,,0.01,WUHU216HW,2013-03-04 02:59:00,
2013-03-03 19:04:00,41.9,31.8,30.12,NNE,23,0.0,0.7,67,0.00,,,0.01,WUHU216HW,2013-03-04 03:04:00,
2013-03-03 19:09:00,41.6,31.8,30.12,NNE,23,0.0,0.4,68,0.00,,,0.01,WUHU216HW,2013-03-04 03:09:00,
2013-03-03 19:14:00,41.4,31.7,30.12,NNE,23,0.0,0.0,68,0.00,,,0.01,WUHU216HW,2013-03-04 03:14:00,
2013-03-03 19:19:00,41.0,31.3,30.12,NNE,23,0.0,0.0,68,0.00,,,0.01,WUHU216HW,2013-03-04 03:19:00,
2013-03-03 19:24:00,40.7,31.3,30.12,NNE,23,0.0,0.0,69,0.00,,,0.01,WUHU216HW,2013-03-04 03:24:00,
2013-03-03 19:29:00,40.5,31.5,30.12,NNE,23,0.0,0.0,70,0.00,,,0.01,WUHU216HW,2013-03-04 03:29:00,
2013-03-03 19:34:00,40.1,31.5,30.12,NNE,23,0.0,0.0,71,0.00,,,0.01,WUHU216HW,2013-03-04 03:34:00,
2013-03-03 19:40:00,39.8,31.2,30.12,NNE,23,0.0,0.0,71,0.00,,,0.01,WUHU216HW,2013-03-04 03:40:00,
2013-03-03 19:45:00,39.6,31.0,30.12,NNE,23,0.9,1.1,71,0.00,,,0.01,WUHU216HW,2013-03-04 03:45:00,
2013-03-03 19:50:00,39.2,30.6,30.12,NNE,23,0.6,1.1,71,0.00,,,0.01,WUHU216HW,2013-03-04 03:50:00,
2013-03-03 19:55:00,38.7,30.8,30.12,NNE,23,1.1,1.3,73,0.00,,,0.01,WUHU216HW,2013-03-04 03:55:00,
2013-03-03 20:00:00,38.2,30.6,30.12,NNE,23,0.5,1.3,74,0.00,,,0.01,WUHU216HW,2013-03-04 04:00:00,
2013-03-03 20:05:00,37.8,30.2,30.12,NNE,23,0.9,1.1,74,0.00,,,0.01,WUHU216HW,2013-03-04 04:05:00,
2013-03-03 20:10:00,37.6,30.4,30.12,NNE,23,0.6,1.3,75,0.00,,,0.01,WUHU216HW,2013-03-04 04:10:00,
2013-03-03 20:15:00,37.4,30.2,30.12,NNE,23,0.6,1.3,75,0.00,,,0.01,WUHU216HW,2013-03-04 04:15:00,
2013-03-03 20:20:00,37.3,30.4,30.12,NNE,23,0.5,1.1,76,0.00,,,0.01,WUHU216HW,2013-03-04 04:20:00,
2013-03-03 20:25:00,37.1,29.9,30.11,NNE,23,0.6,1.1,75,0.00,,,0.01,WUHU216HW,2013-03-04 04:25:00,
2013-03-03 20:30:00,37.1,29.9,30.12,NNE,23,0.2,0.9,75,0.00,,,0.01,WUHU216HW,2013-03-04 04:30:00,
2013-03-03 20:35:00,37.1,29.9,30.12,NNE,23,0.0,0.7,75,0.00,,,0.01,WUHU216HW,2013-03-04 04:35:00,
2013-03-03 20:40:00,37.1,30.3,30.12,NNE,23,0.7,0.7,76,0.00,,,0.01,WUHU216HW,2013-03-04 04:40:00,
2013-03-03 20:46:00,36.9,30.1,30.12,NNE,23,0.9,1.1,76,0.00,,,0.01,WUHU216HW,2013-03-04 04:46:00,
2013-03-03 20:51:00,36.7,29.9,30.12,NNE,23,0.6,1.1,76,0.00,,,0.01,WUHU216HW,2013-03-04 04:51:00,
2013-03-03 20:56:00,36.7,29.9,30.12,NNE,23,0.9,1.1,76,0.00,,,0.01,WUHU216HW,2013-03-04 04:56:00,
2013-03-03 21:00:00,36.7,29.9,30.11,NNE,23,1.1,1.3,76,0.00,,,0.01,WUHU216HW,2013-03-04 05:00:00,
2013-03-03 21:01:00,36.7,29.9,30.11,NNE,23,0.9,1.3,76,0.00,,,0.01,WUHU216HW,2013-03-04 05:01:00,
2013-03-03 21:06:00,36.5,29.7,30.12,NNE,23,1.3,1.3,76,0.00,,,0.01,WUHU216HW,2013-03-04 05:06:00,
2013-03-03 21:11:00,36.4,29.2,30.11,NNE,23,0.7,1.3,75,0.00,,,0.01,WUHU216HW,2013-03-04 05:11:00,
2013-03-03 21:16:00,36.0,28.8,30.12,NNE,23,0.7,1.3,75,0.00,,,0.01,WUHU216HW,2013-03-04 05:16:00,
2013-03-03 21:21:00,35.6,28.4,30.12,WSW,248,0.9,1.8,75,0.00,,,0.01,WUHU216HW,2013-03-04 05:21:00,
2013-03-03 21:26:00,35.6,28.4,30.12,WSW,248,1.6,2.0,75,0.00,,,0.01,WUHU216HW,2013-03-04 05:26:00,
2013-03-03 21:31:00,35.3,28.5,30.12,WSW,248,1.1,2.0,76,0.00,,,0.01,WUHU216HW,2013-03-04 05:31:00,
2013-03-03 21:36:00,35.3,28.1,30.12,WSW,248,1.2,2.0,75,0.00,,,0.01,WUHU216HW,2013-03-04 05:36:00,
2013-03-03 21:42:00,35.5,28.6,30.12,WSW,248,0.3,2.0,76,0.00,,,0.01,WUHU216HW,2013-03-04 05:42:00,
2013-03-03 21:47:00,35.5,28.6,30.12,WSW,248,0.0,1.1,76,0.00,,,0.01,WUHU216HW,2013-03-04 05:47:00,
2013-03-03 21:52:00,35.5,28.3,30.11,WSW,248,0.3,0.7,75,0.00,,,0.01,WUHU216HW,2013-03-04 05:52:00,
2013-03-03 21:57:00,35.3,28.1,30.11,WSW,248,0.7,1.1,75,0.00,,,0.01,WUHU216HW,2013-03-04 05:57:00,
2013-03-03 22:02:00,35.1,27.9,30.11,WSW,248,0.9,1.1,75,0.00,,,0.01,WUHU216HW,2013-03-04 06:02:00,
2013-03-03 22:07:00,34.9,28.1,30.10,WSW,248,0.6,1.1,76,0.00,,,0.01,WUHU216HW,2013-03-04 06:07:00,
2013-03-03 22:12:00,34.4,27.2,30.11,WSW,248,1.1,1.1,75,0.00,,,0.01,WUHU216HW,2013-03-04 06:12:00,
2013-03-03 22:17:00,33.8,26.3,30.11,WSW,244,1.0,1.6,74,0.00,,,0.01,WUHU216HW,2013-03-04 06:17:00,
2013-03-03 22:22:00,33.8,25.0,30.10,WSW,248,2.2,2.2,70,0.00,,,0.01,WUHU216HW,2013-03-04 06:22:00,
2013-03-03 22:27:00,33.8,26.3,30.10,WSW,248,0.4,2.2,74,0.00,,,0.01,WUHU216HW,2013-03-04 06:27:00,
2013-03-03 22:32:00,34.0,26.5,30.10,WSW,248,0.4,2.2,74,0.00,,,0.01,WUHU216HW,2013-03-04 06:32:00,
2013-03-03 22:37:00,34.2,26.6,30.10,WSW,248,0.7,1.1,74,0.00,,,0.01,WUHU216HW,2013-03-04 06:37:00,
2013-03-03 22:42:00,34.0,25.6,30.10,WSW,248,1.1,1.3,71,0.00,,,0.01,WUHU216HW,2013-03-04 06:42:00,
2013-03-03 22:48:00,33.7,25.8,30.10,SSW,203,1.8,1.8,73,0.00,,,0.01,WUHU216HW,2013-03-04 06:48:00,
2013-03-03 22:53:00,33.7,25.5,30.10,SSW,203,1.1,1.8,72,0.00,,,0.01,WUHU216HW,2013-03-04 06:53:00,
2013-03-03 22:58:00,33.8,26.0,30.10,SW,225,0.9,1.8,73,0.00,,,0.01,WUHU216HW,2013-03-04 06:58:00,
2013-03-03 23:03:00,34.0,25.2,30.10,SW,225,1.1,1.1,70,0.00,,,0.01,WUHU216HW,2013-03-04 07:03:00,
2013-03-03 23:08:00,34.2,26.0,30.10,WSW,248,0.9,1.3,72,0.00,,,0.01,WUHU216HW,2013-03-04 07:08:00,
2013-03-03 23:13:00,34.2,26.0,30.10,WSW,248,1.0,1.3,72,0.00,,,0.01,WUHU216HW,2013-03-04 07:13:00,
2013-03-03 23:18:00,34.2,26.4,30.10,WSW,248,0.4,1.1,73,0.00,,,0.01,WUHU216HW,2013-03-04 07:18:00,
2013-03-03 23:23:00,34.2,26.4,30.10,WSW,248,0.4,0.9,73,0.00,,,0.01,WUHU216HW,2013-03-04 07:23:00,
2013-03-03 23:28:00,34.2,26.4,30.10,WSW,248,0.7,0.9,73,0.00,,,0.01,WUHU216HW,2013-03-04 07:28:00,
2013-03-03 23:33:00,34.0,25.6,30.10,WSW,248,1.3,2.5,71,0.00,,,0.01,WUHU216HW,2013-03-04 07:33:00,
2013-03-03 23:38:00,34.0,25.8,30.10,SW,225,1.1,2.5,72,0.00,,,0.01,WUHU216HW,2013-03-04 07:38:00,
2013-03-03 23:43:00,34.0,25.6,30.10,SSW,203,1.3,1.3,71,0.00,,,0.01,WUHU216HW,2013-03-04 07:43:00,
2013-03-03 23:48:00,34.0,25.6,30.09,NW,308,0.8,1.8,71,0.00,,,0.01,WUHU216HW,2013-03-04 07:48:00,
2013-03-03 23:53:00,33.8,25.4,30.09,NE,45,0.6,2.5,71,0.00,,,0.01,WUHU216HW,2013-03-04 07:53:00,
2013-03-03 23:58:00,33.8,25.4,30.09,NE,45,0.0,2.5,71,0.00,,,0.01,WUHU216HW,2013-03-04 07:58:00,